{"data":{"norad_id":60191,"epoch":"2026-05-24T17:24:42.824160Z","epoch_age_seconds":95395,"freshness":"FRESH","line1":"1 60191U 24124J   26144.72549565  .00004537  00000+0  42231-4 0  9994","line2":"2 60191  53.1592 146.6257 0001084  75.0940 285.0198 15.69743381108473","mean_motion":15.69743381,"eccentricity":0.0001084,"inclination_deg":53.1592,"raan_deg":146.6257,"arg_perigee_deg":75.094,"mean_anomaly_deg":285.0198,"bstar":4.2231e-5,"rev_number":10847,"period_min":91.734739412161,"perigee_km":358.90085439217,"apogee_km":360.3616025441,"semimajor_km":6737.7682284681,"source":"CELESTRAK","updated_at":"2026-05-25T13:38:19.194800Z"}}